STARLINK-3866 (52500 NORAD) Tracking and Keplerian Element Data

This shows tracking and keplerian element data for the satellite.

Feedback or suggestion? Click here.




ElementValue
Catalog52500
NameSTARLINK-3866
Epoch Orbit130
Epoch Day228.91667824
Epoch Year2022
RAAN120.1975
Inclination53.2173
Eccentricity0.0001618
Argument of Perigee37.238
Mean Anonmoly308.6473
Mean Motion15.4118733
Decay Rate-0.01070349
L11 52500U 22049BB 22228.91667824 -.01070349 00000+0 -27648-1 0 9991
L22 52500 53.2173 120.1975 0001618 37.2380 308.6473 15.41187330 1307

Live tracking and technical data element details for STARLINK-3866 (NORAD 52500). STARLINK-3866 can be tracked NOW for your location showing map with azimuth and elevation plus other details from your city location.

Track the satellite on the map from your city or location and see movement details for azimuth, elevation, latitude, longitude, range, height, and movement on the map or in text.







IsCatalogInMostPopularTable: catalog: 52500, numindb: 7
Update: records affected: 1



GetName: 52500 STARLINK-3866

Hit Count: updated at: Thu, 18 Aug 2022 19:16:38 GMT